Hourly Weather Granollers

Today, 3 July, Friday

Time Temperature Precipitation Wind Pressure Humidity
00:00 +24°C° 0 mm 2 mps 749 mmHg 83%
01:00 +23°C° 1.2 mm 2 mps 749 mmHg 83%
02:00 +23°C° 1.2 mm 2 mps 749 mmHg 84%
03:00 +23°C° 1.2 mm 2 mps 750 mmHg 85%
04:00 +23°C° 1.3 mm 2 mps 750 mmHg 84%
05:00 +23°C° 1.3 mm 2 mps 750 mmHg 83%
06:00 +23°C° 0 mm 2 mps 750 mmHg 83%
07:00 +23°C° 0.2 mm 2 mps 751 mmHg 79%
08:00 +24°C° 0.2 mm 2 mps 751 mmHg 75%
09:00 +24°C° 0.2 mm 3 mps 751 mmHg 71%
10:00 +25°C° 0.1 mm 3 mps 751 mmHg 68%
11:00 +26°C° 0.1 mm 3 mps 751 mmHg 65%
12:00 +26°C° 0.1 mm 3 mps 751 mmHg 63%
13:00 +27°C° 0.1 mm 3 mps 751 mmHg 61%
14:00 +27°C° 0.1 mm 3 mps 750 mmHg 58%
15:00 +28°C° 0.1 mm 4 mps 750 mmHg 56%
16:00 +27°C° 0 mm 4 mps 750 mmHg 60%
17:00 +26°C° 0 mm 4 mps 750 mmHg 63%
18:00 +26°C° 0 mm 4 mps 750 mmHg 67%
19:00 +25°C° 0 mm 3 mps 751 mmHg 72%
20:00 +24°C° 0 mm 3 mps 751 mmHg 78%
21:00 +23°C° 0 mm 2 mps 752 mmHg 84%
22:00 +23°C° 0.1 mm 2 mps 752 mmHg 85%
23:00 +23°C° 0.1 mm 2 mps 752 mmHg 85%

Tomorrow, 4 July, Saturday

Time Temperature Precipitation Wind Pressure Humidity
00:00 +23°C° 0.1 mm 2 mps 752 mmHg 85%
01:00 +23°C° 0.2 mm 1 mps 752 mmHg 84%
02:00 +23°C° 0.2 mm 1 mps 752 mmHg 83%
03:00 +22°C° 0.2 mm 1 mps 751 mmHg 81%
04:00 +21°C° 0 mm 2 mps 752 mmHg 81%
05:00 +23°C° 0 mm 2 mps 752 mmHg 80%
06:00 +23°C° 0 mm 2 mps 752 mmHg 79%
07:00 +24°C° 0 mm 2 mps 752 mmHg 72%
08:00 +25°C° 0 mm 2 mps 752 mmHg 65%
09:00 +27°C° 0 mm 2 mps 752 mmHg 58%
10:00 +28°C° 0 mm 2 mps 752 mmHg 55%
11:00 +28°C° 0 mm 3 mps 752 mmHg 51%
12:00 +29°C° 0 mm 3 mps 752 mmHg 47%
13:00 +29°C° 0 mm 3 mps 752 mmHg 49%
14:00 +29°C° 0 mm 4 mps 752 mmHg 50%
15:00 +29°C° 0 mm 4 mps 752 mmHg 51%
16:00 +28°C° 0 mm 3 mps 751 mmHg 54%
17:00 +28°C° 0 mm 3 mps 751 mmHg 57%
18:00 +27°C° 0 mm 2 mps 751 mmHg 61%
19:00 +26°C° 0 mm 2 mps 752 mmHg 64%
20:00 +25°C° 0 mm 1 mps 752 mmHg 68%
21:00 +24°C° 0 mm 1 mps 752 mmHg 71%
22:00 +24°C° 0 mm 1 mps 752 mmHg 72%
23:00 +23°C° 0 mm 1 mps 752 mmHg 73%

Day after tomorrow, 5 July, Sunday

Time Temperature Precipitation Wind Pressure Humidity
00:00 +23°C° 0 mm 1 mps 752 mmHg 74%
01:00 +23°C° 0 mm 1 mps 752 mmHg 75%
02:00 +23°C° 0 mm 1 mps 752 mmHg 76%
03:00 +22°C° 0 mm 1 mps 752 mmHg 77%
04:00 +23°C° 0 mm 1 mps 752 mmHg 75%
05:00 +24°C° 0 mm 1 mps 752 mmHg 72%
06:00 +24°C° 0 mm 1 mps 752 mmHg 70%
07:00 +26°C° 0 mm 1 mps 752 mmHg 63%
08:00 +28°C° 0 mm 1 mps 752 mmHg 57%
09:00 +29°C° 0 mm 1 mps 752 mmHg 51%
10:00 +30°C° 0 mm 2 mps 752 mmHg 48%
11:00 +31°C° 0 mm 2 mps 751 mmHg 45%
12:00 +33°C° 0 mm 3 mps 751 mmHg 42%
13:00 +33°C° 0 mm 3 mps 751 mmHg 41%
14:00 +33°C° 0 mm 3 mps 751 mmHg 40%
15:00 +33°C° 0 mm 3 mps 750 mmHg 39%
16:00 +33°C° 0 mm 3 mps 750 mmHg 42%
17:00 +31°C° 0 mm 3 mps 750 mmHg 45%
18:00 +30°C° 0 mm 3 mps 749 mmHg 48%
19:00 +29°C° 0 mm 2 mps 750 mmHg 52%
20:00 +27°C° 0 mm 2 mps 750 mmHg 56%
21:00 +26°C° 0 mm 2 mps 750 mmHg 60%
22:00 +26°C° 0 mm 1 mps 750 mmHg 60%
23:00 +26°C° 0 mm 1 mps 750 mmHg 61%

6 July, Monday

Time Temperature Precipitation Wind Pressure Humidity
00:00 +25°C° 0 mm 1 mps 750 mmHg 62%
01:00 +25°C° 0 mm 1 mps 749 mmHg 62%
02:00 +25°C° 0 mm 1 mps 749 mmHg 63%
03:00 +25°C° 0 mm 1 mps 749 mmHg 63%
04:00 +25°C° 0 mm 1 mps 749 mmHg 62%
05:00 +25°C° 0 mm 1 mps 749 mmHg 61%
06:00 +26°C° 0 mm 1 mps 749 mmHg 60%
07:00 +28°C° 0 mm 1 mps 749 mmHg 56%
08:00 +29°C° 0 mm 1 mps 749 mmHg 51%
09:00 +31°C° 0 mm 1 mps 749 mmHg 46%
10:00 +32°C° 0 mm 2 mps 749 mmHg 44%
11:00 +32°C° 0 mm 2 mps 749 mmHg 43%
12:00 +34°C° 0 mm 2 mps 749 mmHg 41%
13:00 +34°C° 0 mm 3 mps 748 mmHg 42%
14:00 +34°C° 0 mm 3 mps 748 mmHg 44%
15:00 +34°C° 0 mm 3 mps 748 mmHg 45%
16:00 +33°C° 0 mm 3 mps 748 mmHg 50%
17:00 +30°C° 0 mm 3 mps 747 mmHg 55%
18:00 +29°C° 0 mm 3 mps 747 mmHg 60%
19:00 +28°C° 0.2 mm 2 mps 748 mmHg 66%
20:00 +27°C° 0.2 mm 2 mps 748 mmHg 72%
21:00 +25°C° 0.2 mm 1 mps 749 mmHg 78%
22:00 +25°C° 0.1 mm 1 mps 749 mmHg 80%
23:00 +25°C° 0.1 mm 1 mps 749 mmHg 82%

7 July, Tuesday

Time Temperature Precipitation Wind Pressure Humidity
00:00 +24°C° 0.1 mm 1 mps 748 mmHg 83%
01:00 +24°C° 0 mm 1 mps 748 mmHg 84%
02:00 +24°C° 0 mm 1 mps 748 mmHg 84%
03:00 +23°C° 0 mm 1 mps 748 mmHg 85%
04:00 +23°C° 0 mm 1 mps 748 mmHg 83%
05:00 +24°C° 0 mm 2 mps 748 mmHg 82%
06:00 +24°C° 0 mm 2 mps 748 mmHg 81%
07:00 +25°C° 0 mm 2 mps 748 mmHg 74%
08:00 +26°C° 0 mm 2 mps 748 mmHg 67%
09:00 +28°C° 0 mm 2 mps 748 mmHg 60%
10:00 +28°C° 0 mm 2 mps 748 mmHg 60%
11:00 +28°C° 0 mm 3 mps 748 mmHg 59%
12:00 +29°C° 0 mm 3 mps 748 mmHg 59%
13:00 +29°C° 0 mm 3 mps 748 mmHg 58%
14:00 +30°C° 0 mm 3 mps 748 mmHg 57%
15:00 +30°C° 0 mm 3 mps 747 mmHg 55%
16:00 +29°C° 0 mm 3 mps 747 mmHg 59%
17:00 +28°C° 0 mm 2 mps 747 mmHg 64%
18:00 +27°C° 0 mm 2 mps 747 mmHg 68%
19:00 +26°C° 0 mm 2 mps 748 mmHg 72%
20:00 +25°C° 0 mm 1 mps 748 mmHg 76%
21:00 +24°C° 0 mm 1 mps 749 mmHg 80%
22:00 +24°C° 0 mm 1 mps 749 mmHg 80%
23:00 +24°C° 0 mm 1 mps 749 mmHg 80%

8 July, Wednesday

Time Temperature Precipitation Wind Pressure Humidity
00:00 +24°C° 0 mm 1 mps 749 mmHg 81%
01:00 +24°C° 0 mm 1 mps 749 mmHg 81%
02:00 +23°C° 0 mm 1 mps 749 mmHg 81%
03:00 +21°C° 0 mm 0 mps 748 mmHg 81%
04:00 +24°C° 0 mm 1 mps 749 mmHg 79%
05:00 +24°C° 0 mm 1 mps 749 mmHg 77%
06:00 +25°C° 0 mm 1 mps 749 mmHg 75%
07:00 +26°C° 0 mm 1 mps 749 mmHg 68%
08:00 +28°C° 0 mm 1 mps 749 mmHg 60%
09:00 +29°C° 0 mm 1 mps 750 mmHg 53%
10:00 +30°C° 0 mm 2 mps 750 mmHg 51%
11:00 +31°C° 0 mm 3 mps 750 mmHg 50%
12:00 +33°C° 0 mm 3 mps 749 mmHg 48%
13:00 +31°C° 0 mm 3 mps 749 mmHg 49%
14:00 +31°C° 0 mm 3 mps 749 mmHg 51%
15:00 +31°C° 0 mm 3 mps 749 mmHg 52%
16:00 +30°C° 0 mm 3 mps 749 mmHg 55%
17:00 +29°C° 0 mm 2 mps 749 mmHg 58%
18:00 +28°C° 0 mm 2 mps 749 mmHg 60%
19:00 +27°C° 0 mm 1 mps 749 mmHg 64%
20:00 +26°C° 0 mm 1 mps 750 mmHg 68%
21:00 +25°C° 0 mm 1 mps 750 mmHg 71%
22:00 +25°C° 0 mm 2 mps 750 mmHg 72%
23:00 +25°C° 0 mm 3 mps 749 mmHg 73%
Show more